Netzbetreibername:;Energie- und Wasserversorgung Altenburg GmbH;
gesetzliche Grundlage:;� 23c Abs. 2 Nr. 3 StromNZV (Lastgangtyp: Summenlast der nicht leistungsgemessenen Kunden (Restlastkurve));
Einheit:;kW;
Betrachtungszeitraum:;01.01.2022 bis 31.12.2022;
;;
;;
;;
Datum;Zeit;Wirkleistung (kW)
;;
01.01.2022;00:15:00;4736
01.01.2022;00:30:00;4665
01.01.2022;00:45:00;4573
01.01.2022;01:00:00;4460
01.01.2022;01:15:00;4427
01.01.2022;01:30:00;4247
01.01.2022;01:45:00;4086
01.01.2022;02:00:00;3998
01.01.2022;02:15:00;3858
01.01.2022;02:30:00;3794
01.01.2022;02:45:00;3651
01.01.2022;03:00:00;3628
01.01.2022;03:15:00;3604
01.01.2022;03:30:00;3621
01.01.2022;03:45:00;3637
01.01.2022;04:00:00;3670
01.01.2022;04:15:00;3712
01.01.2022;04:30:00;3620
01.01.2022;04:45:00;3737
01.01.2022;05:00:00;3702
01.01.2022;05:15:00;3770
01.01.2022;05:30:00;3698
01.01.2022;05:45:00;3567
01.01.2022;06:00:00;3541
01.01.2022;06:15:00;3472
01.01.2022;06:30:00;3440
01.01.2022;06:45:00;3424
01.01.2022;07:00:00;3486
01.01.2022;07:15:00;3611
01.01.2022;07:30:00;3730
01.01.2022;07:45:00;3866
01.01.2022;08:00:00;3962
01.01.2022;08:15:00;4112
01.01.2022;08:30:00;4085
01.01.2022;08:45:00;4358
01.01.2022;09:00:00;4504
01.01.2022;09:15:00;4648
01.01.2022;09:30:00;4800
01.01.2022;09:45:00;5020
01.01.2022;10:00:00;5220
01.01.2022;10:15:00;5524
01.01.2022;10:30:00;5649
01.01.2022;10:45:00;5875
01.01.2022;11:00:00;6089
01.01.2022;11:15:00;6501
01.01.2022;11:30:00;6932
01.01.2022;11:45:00;7190
01.01.2022;12:00:00;7244
01.01.2022;12:15:00;7109
01.01.2022;12:30:00;7003
01.01.2022;12:45:00;6858
01.01.2022;13:00:00;6556
01.01.2022;13:15:00;6104
01.01.2022;13:30:00;6027
01.01.2022;13:45:00;5820
01.01.2022;14:00:00;5834
01.01.2022;14:15:00;5863
01.01.2022;14:30:00;5839
01.01.2022;14:45:00;5741
01.01.2022;15:00:00;5716
01.01.2022;15:15:00;5719
01.01.2022;15:30:00;5755
01.01.2022;15:45:00;5795
01.01.2022;16:00:00;5736
01.01.2022;16:15:00;5935
01.01.2022;16:30:00;6081
01.01.2022;16:45:00;6627
01.01.2022;17:00:00;6906
01.01.2022;17:15:00;7072
01.01.2022;17:30:00;7235
01.01.2022;17:45:00;7417
01.01.2022;18:00:00;7569
01.01.2022;18:15:00;7558
01.01.2022;18:30:00;7585
01.01.2022;18:45:00;7580
01.01.2022;19:00:00;7522
01.01.2022;19:15:00;7410
01.01.2022;19:30:00;7221
01.01.2022;19:45:00;7030
01.01.2022;20:00:00;6823
01.01.2022;20:15:00;6742
01.01.2022;20:30:00;6567
01.01.2022;20:45:00;6407
01.01.2022;21:00:00;6275
01.01.2022;21:15:00;6115
01.01.2022;21:30:00;5955
01.01.2022;21:45:00;5782
01.01.2022;22:00:00;5764
01.01.2022;22:15:00;5746
01.01.2022;22:30:00;5535
01.01.2022;22:45:00;5359
01.01.2022;23:00:00;5197
01.01.2022;23:15:00;4941
01.01.2022;23:30:00;4771
01.01.2022;23:45:00;4546
02.01.2022;00:00:00;4345
02.01.2022;00:15:00;4149
02.01.2022;00:30:00;3978
02.01.2022;00:45:00;3861
02.01.2022;01:00:00;3705
02.01.2022;01:15:00;3644
02.01.2022;01:30:00;3604
02.01.2022;01:45:00;3546
02.01.2022;02:00:00;3517
02.01.2022;02:15:00;3455
02.01.2022;02:30:00;3427
02.01.2022;02:45:00;3402
02.01.2022;03:00:00;3403
02.01.2022;03:15:00;3426
02.01.2022;03:30:00;3467
02.01.2022;03:45:00;3525
02.01.2022;04:00:00;3599
02.01.2022;04:15:00;3693
02.01.2022;04:30:00;3718
02.01.2022;04:45:00;3707
02.01.2022;05:00:00;3711
02.01.2022;05:15:00;3767
02.01.2022;05:30:00;3733
02.01.2022;05:45:00;3655
02.01.2022;06:00:00;3567
02.01.2022;06:15:00;3492
02.01.2022;06:30:00;3524
02.01.2022;06:45:00;3523
02.01.2022;07:00:00;3655
02.01.2022;07:15:00;3809
02.01.2022;07:30:00;3974
02.01.2022;07:45:00;4153
02.01.2022;08:00:00;4491
02.01.2022;08:15:00;4794
02.01.2022;08:30:00;4777
02.01.2022;08:45:00;5060
02.01.2022;09:00:00;5242
02.01.2022;09:15:00;5480
02.01.2022;09:30:00;5662
02.01.2022;09:45:00;5815
02.01.2022;10:00:00;6140
02.01.2022;10:15:00;6327
02.01.2022;10:30:00;6386
02.01.2022;10:45:00;6582
02.01.2022;11:00:00;6788
02.01.2022;11:15:00;7275
02.01.2022;11:30:00;7916
02.01.2022;11:45:00;8220
02.01.2022;12:00:00;8203
02.01.2022;12:15:00;7983
02.01.2022;12:30:00;7591
02.01.2022;12:45:00;7104
02.01.2022;13:00:00;6743
02.01.2022;13:15:00;6457
02.01.2022;13:30:00;6276
02.01.2022;13:45:00;6154
02.01.2022;14:00:00;5983
02.01.2022;14:15:00;5827
02.01.2022;14:30:00;5772
02.01.2022;14:45:00;5838
02.01.2022;15:00:00;5823
02.01.2022;15:15:00;5814
02.01.2022;15:30:00;5807
02.01.2022;15:45:00;5712
02.01.2022;16:00:00;5686
02.01.2022;16:15:00;5786
02.01.2022;16:30:00;5987
02.01.2022;16:45:00;6491
02.01.2022;17:00:00;6874
02.01.2022;17:15:00;7092
02.01.2022;17:30:00;7402
02.01.2022;17:45:00;7779
02.01.2022;18:00:00;7809
02.01.2022;18:15:00;7928
02.01.2022;18:30:00;7936
02.01.2022;18:45:00;7856
02.01.2022;19:00:00;7769
02.01.2022;19:15:00;7571
02.01.2022;19:30:00;7442
02.01.2022;19:45:00;7179
02.01.2022;20:00:00;6964
02.01.2022;20:15:00;6783
02.01.2022;20:30:00;6546
02.01.2022;20:45:00;6358
02.01.2022;21:00:00;6212
02.01.2022;21:15:00;6030
02.01.2022;21:30:00;5906
02.01.2022;21:45:00;5724
02.01.2022;22:00:00;5568
02.01.2022;22:15:00;5538
02.01.2022;22:30:00;5259
02.01.2022;22:45:00;5070
02.01.2022;23:00:00;4872
02.01.2022;23:15:00;4672
02.01.2022;23:30:00;4509
02.01.2022;23:45:00;4310
03.01.2022;00:00:00;4067
03.01.2022;00:15:00;3904
03.01.2022;00:30:00;3775
03.01.2022;00:45:00;3704
03.01.2022;01:00:00;3594
03.01.2022;01:15:00;3555
03.01.2022;01:30:00;3508
03.01.2022;01:45:00;3462
03.01.2022;02:00:00;3433
03.01.2022;02:15:00;3473
03.01.2022;02:30:00;3444
03.01.2022;02:45:00;3458
03.01.2022;03:00:00;3435
03.01.2022;03:15:00;3496
03.01.2022;03:30:00;3528
03.01.2022;03:45:00;3556
03.01.2022;04:00:00;3633
03.01.2022;04:15:00;3848
03.01.2022;04:30:00;3892
03.01.2022;04:45:00;3940
03.01.2022;05:00:00;4042
03.01.2022;05:15:00;4220
03.01.2022;05:30:00;4267
03.01.2022;05:45:00;4331
03.01.2022;06:00:00;4248
03.01.2022;06:15:00;4317
03.01.2022;06:30:00;4578
03.01.2022;06:45:00;4736
03.01.2022;07:00:00;4986
03.01.2022;07:15:00;5247
03.01.2022;07:30:00;5547
03.01.2022;07:45:00;5913
03.01.2022;08:00:00;6176
03.01.2022;08:15:00;6129
03.01.2022;08:30:00;6212
03.01.2022;08:45:00;6302
03.01.2022;09:00:00;6441
03.01.2022;09:15:00;6379
03.01.2022;09:30:00;6437
03.01.2022;09:45:00;6469
03.01.2022;10:00:00;6526
03.01.2022;10:15:00;6679
03.01.2022;10:30:00;6653
03.01.2022;10:45:00;6725
03.01.2022;11:00:00;6864
03.01.2022;11:15:00;6959
03.01.2022;11:30:00;7182
03.01.2022;11:45:00;7274
03.01.2022;12:00:00;7371
03.01.2022;12:15:00;7323
03.01.2022;12:30:00;7094
03.01.2022;12:45:00;6909
03.01.2022;13:00:00;6868
03.01.2022;13:15:00;6684
03.01.2022;13:30:00;6463
03.01.2022;13:45:00;6352
03.01.2022;14:00:00;6176
03.01.2022;14:15:00;6182
03.01.2022;14:30:00;6184
03.01.2022;14:45:00;6132
03.01.2022;15:00:00;6139
03.01.2022;15:15:00;6238
03.01.2022;15:30:00;6286
03.01.2022;15:45:00;6216
03.01.2022;16:00:00;6267
03.01.2022;16:15:00;6510
03.01.2022;16:30:00;6598
03.01.2022;16:45:00;7094
03.01.2022;17:00:00;7343
03.01.2022;17:15:00;7582
03.01.2022;17:30:00;7668
03.01.2022;17:45:00;7859
03.01.2022;18:00:00;7974
03.01.2022;18:15:00;7924
03.01.2022;18:30:00;7791
03.01.2022;18:45:00;7782
03.01.2022;19:00:00;7668
03.01.2022;19:15:00;7541
03.01.2022;19:30:00;7405
03.01.2022;19:45:00;7244
03.01.2022;20:00:00;7055
03.01.2022;20:15:00;6928
03.01.2022;20:30:00;6624
03.01.2022;20:45:00;6479
03.01.2022;21:00:00;6271
03.01.2022;21:15:00;6014
03.01.2022;21:30:00;5915
03.01.2022;21:45:00;5760
03.01.2022;22:00:00;5709
03.01.2022;22:15:00;5596
03.01.2022;22:30:00;5375
03.01.2022;22:45:00;5124
03.01.2022;23:00:00;5046
03.01.2022;23:15:00;4753
03.01.2022;23:30:00;4570
03.01.2022;23:45:00;4405
04.01.2022;00:00:00;4217
04.01.2022;00:15:00;4062
04.01.2022;00:30:00;3946
04.01.2022;00:45:00;3853
04.01.2022;01:00:00;3740
04.01.2022;01:15:00;3723
04.01.2022;01:30:00;3650
04.01.2022;01:45:00;3608
04.01.2022;02:00:00;3584
04.01.2022;02:15:00;3516
04.01.2022;02:30:00;3554
04.01.2022;02:45:00;3555
04.01.2022;03:00:00;3557
04.01.2022;03:15:00;3579
04.01.2022;03:30:00;3580
04.01.2022;03:45:00;3735
04.01.2022;04:00:00;3741
04.01.2022;04:15:00;3909
04.01.2022;04:30:00;3959
04.01.2022;04:45:00;4017
04.01.2022;05:00:00;4082
04.01.2022;05:15:00;4222
04.01.2022;05:30:00;4321
04.01.2022;05:45:00;4360
04.01.2022;06:00:00;4304
04.01.2022;06:15:00;4381
04.01.2022;06:30:00;4640
04.01.2022;06:45:00;4778
04.01.2022;07:00:00;4998
04.01.2022;07:15:00;5247
04.01.2022;07:30:00;5606
04.01.2022;07:45:00;5966
04.01.2022;08:00:00;6154
04.01.2022;08:15:00;6401
04.01.2022;08:30:00;6348
04.01.2022;08:45:00;6326
04.01.2022;09:00:00;6544
04.01.2022;09:15:00;6619
04.01.2022;09:30:00;6685
04.01.2022;09:45:00;6715
04.01.2022;10:00:00;6830
04.01.2022;10:15:00;6858
04.01.2022;10:30:00;6833
04.01.2022;10:45:00;7022
04.01.2022;11:00:00;7073
04.01.2022;11:15:00;7206
04.01.2022;11:30:00;7558
04.01.2022;11:45:00;7704
04.01.2022;12:00:00;7762
04.01.2022;12:15:00;7525
04.01.2022;12:30:00;7230
04.01.2022;12:45:00;7160
04.01.2022;13:00:00;6928
04.01.2022;13:15:00;6815
04.01.2022;13:30:00;6762
04.01.2022;13:45:00;6743
04.01.2022;14:00:00;6683
04.01.2022;14:15:00;6581
04.01.2022;14:30:00;6638
04.01.2022;14:45:00;6660
04.01.2022;15:00:00;6618
04.01.2022;15:15:00;6656
04.01.2022;15:30:00;6619
04.01.2022;15:45:00;6599
04.01.2022;16:00:00;6653
04.01.2022;16:15:00;6860
04.01.2022;16:30:00;7036
04.01.2022;16:45:00;7484
04.01.2022;17:00:00;7588
04.01.2022;17:15:00;7748
04.01.2022;17:30:00;7963
04.01.2022;17:45:00;8117
04.01.2022;18:00:00;8197
04.01.2022;18:15:00;8163
04.01.2022;18:30:00;8160
04.01.2022;18:45:00;8108
04.01.2022;19:00:00;7924
04.01.2022;19:15:00;7782
04.01.2022;19:30:00;7652
04.01.2022;19:45:00;7414
04.01.2022;20:00:00;7297
04.01.2022;20:15:00;7054
04.01.2022;20:30:00;6766
04.01.2022;20:45:00;6493
04.01.2022;21:00:00;6341
04.01.2022;21:15:00;6204
04.01.2022;21:30:00;6037
04.01.2022;21:45:00;5942
04.01.2022;22:00:00;5826
04.01.2022;22:15:00;5710
04.01.2022;22:30:00;5505
04.01.2022;22:45:00;5300
04.01.2022;23:00:00;5084
04.01.2022;23:15:00;4862
04.01.2022;23:30:00;4665
04.01.2022;23:45:00;4484
05.01.2022;00:00:00;4301
05.01.2022;00:15:00;4163
05.01.2022;00:30:00;4051
05.01.2022;00:45:00;3962
05.01.2022;01:00:00;3896
05.01.2022;01:15:00;3878
05.01.2022;01:30:00;3837
05.01.2022;01:45:00;3771
05.01.2022;02:00:00;3712
05.01.2022;02:15:00;3676
05.01.2022;02:30:00;3670
05.01.2022;02:45:00;3682
05.01.2022;03:00:00;3719
05.01.2022;03:15:00;3799
05.01.2022;03:30:00;3875
05.01.2022;03:45:00;3929
05.01.2022;04:00:00;3986
05.01.2022;04:15:00;4128
05.01.2022;04:30:00;4130
05.01.2022;04:45:00;4168
05.01.2022;05:00:00;4258
05.01.2022;05:15:00;4487
05.01.2022;05:30:00;4575
05.01.2022;05:45:00;4664
05.01.2022;06:00:00;4660
05.01.2022;06:15:00;4766
05.01.2022;06:30:00;4982
05.01.2022;06:45:00;5285
05.01.2022;07:00:00;5527
05.01.2022;07:15:00;5776
05.01.2022;07:30:00;6051
05.01.2022;07:45:00;6465
05.01.2022;08:00:00;6793
05.01.2022;08:15:00;6975
05.01.2022;08:30:00;6864
05.01.2022;08:45:00;6780
05.01.2022;09:00:00;6939
05.01.2022;09:15:00;6998
05.01.2022;09:30:00;6933
05.01.2022;09:45:00;6992
05.01.2022;10:00:00;6990
05.01.2022;10:15:00;7035
05.01.2022;10:30:00;7034
05.01.2022;10:45:00;7082
05.01.2022;11:00:00;7180
05.01.2022;11:15:00;7306
05.01.2022;11:30:00;7517
05.01.2022;11:45:00;7696
05.01.2022;12:00:00;7678
05.01.2022;12:15:00;7524
05.01.2022;12:30:00;7257
05.01.2022;12:45:00;7150
05.01.2022;13:00:00;6883
05.01.2022;13:15:00;6802
05.01.2022;13:30:00;6747
05.01.2022;13:45:00;6674
05.01.2022;14:00:00;6637
05.01.2022;14:15:00;6487
05.01.2022;14:30:00;6588
05.01.2022;14:45:00;6620
05.01.2022;15:00:00;6670
05.01.2022;15:15:00;6699
05.01.2022;15:30:00;6738
05.01.2022;15:45:00;6784
05.01.2022;16:00:00;6877
05.01.2022;16:15:00;6966
05.01.2022;16:30:00;7118
05.01.2022;16:45:00;7429
05.01.2022;17:00:00;7697
05.01.2022;17:15:00;7885
05.01.2022;17:30:00;8121
05.01.2022;17:45:00;8413
05.01.2022;18:00:00;8322
05.01.2022;18:15:00;8351
05.01.2022;18:30:00;8386
05.01.2022;18:45:00;8332
05.01.2022;19:00:00;8171
05.01.2022;19:15:00;7994
05.01.2022;19:30:00;7723
05.01.2022;19:45:00;7583
05.01.2022;20:00:00;7416
05.01.2022;20:15:00;7180
05.01.2022;20:30:00;7006
05.01.2022;20:45:00;6754
05.01.2022;21:00:00;6542
05.01.2022;21:15:00;6344
05.01.2022;21:30:00;6221
05.01.2022;21:45:00;6078
05.01.2022;22:00:00;6004
05.01.2022;22:15:00;5788
05.01.2022;22:30:00;5643
05.01.2022;22:45:00;5447
05.01.2022;23:00:00;5266
05.01.2022;23:15:00;5044
05.01.2022;23:30:00;4863
05.01.2022;23:45:00;4706
06.01.2022;00:00:00;4454
06.01.2022;00:15:00;4297
06.01.2022;00:30:00;4147
06.01.2022;00:45:00;4069
06.01.2022;01:00:00;4000
06.01.2022;01:15:00;3923
06.01.2022;01:30:00;3912
06.01.2022;01:45:00;3880
06.01.2022;02:00:00;3860
06.01.2022;02:15:00;3915
06.01.2022;02:30:00;3863
06.01.2022;02:45:00;3920
06.01.2022;03:00:00;3985
06.01.2022;03:15:00;4038
06.01.2022;03:30:00;4098
06.01.2022;03:45:00;4126
06.01.2022;04:00:00;4201
06.01.2022;04:15:00;4304
06.01.2022;04:30:00;4322
06.01.2022;04:45:00;4344
06.01.2022;05:00:00;4423
06.01.2022;05:15:00;4574
06.01.2022;05:30:00;4631
06.01.2022;05:45:00;4726
06.01.2022;06:00:00;4748
06.01.2022;06:15:00;4825
06.01.2022;06:30:00;4985
06.01.2022;06:45:00;5221
06.01.2022;07:00:00;5561
06.01.2022;07:15:00;5840
06.01.2022;07:30:00;6097
06.01.2022;07:45:00;6517
06.01.2022;08:00:00;6708
06.01.2022;08:15:00;6665
06.01.2022;08:30:00;6805
06.01.2022;08:45:00;6813
06.01.2022;09:00:00;6850
06.01.2022;09:15:00;6777
06.01.2022;09:30:00;6763
06.01.2022;09:45:00;6757
06.01.2022;10:00:00;6918
06.01.2022;10:15:00;6906
06.01.2022;10:30:00;6926
06.01.2022;10:45:00;6961
06.01.2022;11:00:00;7122
06.01.2022;11:15:00;7309
06.01.2022;11:30:00;7442
06.01.2022;11:45:00;7409
06.01.2022;12:00:00;7340
06.01.2022;12:15:00;7382
06.01.2022;12:30:00;7239
06.01.2022;12:45:00;7199
06.01.2022;13:00:00;6957
06.01.2022;13:15:00;6781
06.01.2022;13:30:00;6585
06.01.2022;13:45:00;6546
06.01.2022;14:00:00;6425
06.01.2022;14:15:00;6351
06.01.2022;14:30:00;6347
06.01.2022;14:45:00;6265
06.01.2022;15:00:00;6331
06.01.2022;15:15:00;6481
06.01.2022;15:30:00;6499
06.01.2022;15:45:00;6455
06.01.2022;16:00:00;6520
06.01.2022;16:15:00;6615
06.01.2022;16:30:00;6925
06.01.2022;16:45:00;7273
06.01.2022;17:00:00;7821
06.01.2022;17:15:00;8042
06.01.2022;17:30:00;8116
06.01.2022;17:45:00;8374
06.01.2022;18:00:00;8554
06.01.2022;18:15:00;8497
06.01.2022;18:30:00;8514
06.01.2022;18:45:00;8390
06.01.2022;19:00:00;8231
06.01.2022;19:15:00;8091
06.01.2022;19:30:00;7932
06.01.2022;19:45:00;7848
06.01.2022;20:00:00;7534
06.01.2022;20:15:00;7313
06.01.2022;20:30:00;7066
06.01.2022;20:45:00;6807
06.01.2022;21:00:00;6637
06.01.2022;21:15:00;6473
06.01.2022;21:30:00;6278
06.01.2022;21:45:00;6130
06.01.2022;22:00:00;6161
06.01.2022;22:15:00;6041
06.01.2022;22:30:00;5780
06.01.2022;22:45:00;5590
06.01.2022;23:00:00;5410
06.01.2022;23:15:00;5213
06.01.2022;23:30:00;5047
06.01.2022;23:45:00;4869
07.01.2022;00:00:00;4823
07.01.2022;00:15:00;4602
07.01.2022;00:30:00;4474
07.01.2022;00:45:00;4381
07.01.2022;01:00:00;4266
07.01.2022;01:15:00;4252
07.01.2022;01:30:00;4224
07.01.2022;01:45:00;4207
07.01.2022;02:00:00;4206
07.01.2022;02:15:00;4254
07.01.2022;02:30:00;4283
07.01.2022;02:45:00;4302
07.01.2022;03:00:00;4325
07.01.2022;03:15:00;4371
07.01.2022;03:30:00;4329
07.01.2022;03:45:00;4342
07.01.2022;04:00:00;4389
07.01.2022;04:15:00;4542
07.01.2022;04:30:00;4592
07.01.2022;04:45:00;4638
07.01.2022;05:00:00;4728
07.01.2022;05:15:00;4867
07.01.2022;05:30:00;4886
07.01.2022;05:45:00;4938
07.01.2022;06:00:00;4831
07.01.2022;06:15:00;5010
07.01.2022;06:30:00;5147
07.01.2022;06:45:00;5322
07.01.2022;07:00:00;5613
07.01.2022;07:15:00;5917
07.01.2022;07:30:00;6160
07.01.2022;07:45:00;6518
07.01.2022;08:00:00;6800
07.01.2022;08:15:00;6703
07.01.2022;08:30:00;6836
07.01.2022;08:45:00;7012
07.01.2022;09:00:00;6907
07.01.2022;09:15:00;6838
07.01.2022;09:30:00;6884
07.01.2022;09:45:00;7032
07.01.2022;10:00:00;7168
07.01.2022;10:15:00;7238
07.01.2022;10:30:00;7201
07.01.2022;10:45:00;7318
07.01.2022;11:00:00;7392
07.01.2022;11:15:00;7489
07.01.2022;11:30:00;7633
07.01.2022;11:45:00;7754
07.01.2022;12:00:00;7679
07.01.2022;12:15:00;7576
07.01.2022;12:30:00;7490
07.01.2022;12:45:00;7425
07.01.2022;13:00:00;7341
07.01.2022;13:15:00;7110
07.01.2022;13:30:00;7023
07.01.2022;13:45:00;6998
07.01.2022;14:00:00;6970
07.01.2022;14:15:00;6953
07.01.2022;14:30:00;7017
07.01.2022;14:45:00;6954
07.01.2022;15:00:00;6900
07.01.2022;15:15:00;6890
07.01.2022;15:30:00;6939
07.01.2022;15:45:00;7016
07.01.2022;16:00:00;7129
07.01.2022;16:15:00;7210
07.01.2022;16:30:00;7313
07.01.2022;16:45:00;7803
07.01.2022;17:00:00;7956
07.01.2022;17:15:00;8120
07.01.2022;17:30:00;8214
07.01.2022;17:45:00;8374
07.01.2022;18:00:00;8537
07.01.2022;18:15:00;8413
07.01.2022;18:30:00;8300
07.01.2022;18:45:00;8325
07.01.2022;19:00:00;8325
07.01.2022;19:15:00;8022
07.01.2022;19:30:00;7825
07.01.2022;19:45:00;7629
07.01.2022;20:00:00;7400
07.01.2022;20:15:00;7192
07.01.2022;20:30:00;7081
07.01.2022;20:45:00;6933
07.01.2022;21:00:00;6668
07.01.2022;21:15:00;6497
07.01.2022;21:30:00;6371
07.01.2022;21:45:00;6270
07.01.2022;22:00:00;6200
07.01.2022;22:15:00;6205
07.01.2022;22:30:00;5962
07.01.2022;22:45:00;5765
07.01.2022;23:00:00;5592
07.01.2022;23:15:00;5395
07.01.2022;23:30:00;5281
07.01.2022;23:45:00;5101
08.01.2022;00:00:00;4899
08.01.2022;00:15:00;4799
08.01.2022;00:30:00;4587
08.01.2022;00:45:00;4456
08.01.2022;01:00:00;4355
08.01.2022;01:15:00;4304
08.01.2022;01:30:00;4235
08.01.2022;01:45:00;4204
08.01.2022;02:00:00;4168
08.01.2022;02:15:00;4150
08.01.2022;02:30:00;4113
08.01.2022;02:45:00;4142
08.01.2022;03:00:00;4152
08.01.2022;03:15:00;4215
08.01.2022;03:30:00;4272
08.01.2022;03:45:00;4340
08.01.2022;04:00:00;4372
08.01.2022;04:15:00;4405
08.01.2022;04:30:00;4384
08.01.2022;04:45:00;4369
08.01.2022;05:00:00;4334
08.01.2022;05:15:00;4396
08.01.2022;05:30:00;4356
08.01.2022;05:45:00;4333
08.01.2022;06:00:00;4198
08.01.2022;06:15:00;4179
08.01.2022;06:30:00;4275
08.01.2022;06:45:00;4354
08.01.2022;07:00:00;4546
08.01.2022;07:15:00;4723
08.01.2022;07:30:00;4972
08.01.2022;07:45:00;5284
08.01.2022;08:00:00;5678
08.01.2022;08:15:00;5990
08.01.2022;08:30:00;6144
08.01.2022;08:45:00;6220
08.01.2022;09:00:00;6489
08.01.2022;09:15:00;6702
08.01.2022;09:30:00;6808
08.01.2022;09:45:00;7108
08.01.2022;10:00:00;7216
08.01.2022;10:15:00;7265
08.01.2022;10:30:00;7447
08.01.2022;10:45:00;7526
08.01.2022;11:00:00;7714
08.01.2022;11:15:00;8051
08.01.2022;11:30:00;8332
08.01.2022;11:45:00;8577
08.01.2022;12:00:00;8636
08.01.2022;12:15:00;8295
08.01.2022;12:30:00;8036
08.01.2022;12:45:00;7855
08.01.2022;13:00:00;7482
08.01.2022;13:15:00;7238
08.01.2022;13:30:00;6998
08.01.2022;13:45:00;6728
08.01.2022;14:00:00;6707
08.01.2022;14:15:00;6578
08.01.2022;14:30:00;6455
08.01.2022;14:45:00;6343
08.01.2022;15:00:00;6380
08.01.2022;15:15:00;6352
08.01.2022;15:30:00;6414
08.01.2022;15:45:00;6518
08.01.2022;16:00:00;6400
08.01.2022;16:15:00;6452
08.01.2022;16:30:00;6681
08.01.2022;16:45:00;6955
08.01.2022;17:00:00;7496
08.01.2022;17:15:00;7810
08.01.2022;17:30:00;8107
08.01.2022;17:45:00;8366
08.01.2022;18:00:00;8558
08.01.2022;18:15:00;8501
08.01.2022;18:30:00;8576
08.01.2022;18:45:00;8441
08.01.2022;19:00:00;8322
08.01.2022;19:15:00;8237
08.01.2022;19:30:00;7951
08.01.2022;19:45:00;7684
08.01.2022;20:00:00;7542
08.01.2022;20:15:00;7374
08.01.2022;20:30:00;7122
08.01.2022;20:45:00;6943
08.01.2022;21:00:00;6757
08.01.2022;21:15:00;6624
08.01.2022;21:30:00;6367
08.01.2022;21:45:00;6281
08.01.2022;22:00:00;6188
08.01.2022;22:15:00;6182
08.01.2022;22:30:00;6012
08.01.2022;22:45:00;5878
08.01.2022;23:00:00;5740
08.01.2022;23:15:00;5512
08.01.2022;23:30:00;5371
08.01.2022;23:45:00;5264
09.01.2022;00:00:00;4987
09.01.2022;00:15:00;4735
09.01.2022;00:30:00;4581
09.01.2022;00:45:00;4439
09.01.2022;01:00:00;4284
09.01.2022;01:15:00;4233
09.01.2022;01:30:00;4167
09.01.2022;01:45:00;4180
09.01.2022;02:00:00;4109
09.01.2022;02:15:00;4082
09.01.2022;02:30:00;4093
09.01.2022;02:45:00;4112
09.01.2022;03:00:00;4160
09.01.2022;03:15:00;4161
09.01.2022;03:30:00;4159
09.01.2022;03:45:00;4189
09.01.2022;04:00:00;4157
09.01.2022;04:15:00;4173
09.01.2022;04:30:00;4183
09.01.2022;04:45:00;4261
09.01.2022;05:00:00;4240
09.01.2022;05:15:00;4305
09.01.2022;05:30:00;4219
09.01.2022;05:45:00;4155
09.01.2022;06:00:00;4045
09.01.2022;06:15:00;3934
09.01.2022;06:30:00;3910
09.01.2022;06:45:00;3987
09.01.2022;07:00:00;4030
09.01.2022;07:15:00;4209
09.01.2022;07:30:00;4412
09.01.2022;07:45:00;4779
09.01.2022;08:00:00;5129
09.01.2022;08:15:00;5183
09.01.2022;08:30:00;5540
09.01.2022;08:45:00;5866
09.01.2022;09:00:00;6289
09.01.2022;09:15:00;6450
09.01.2022;09:30:00;6450
09.01.2022;09:45:00;6653
09.01.2022;10:00:00;6916
09.01.2022;10:15:00;7191
09.01.2022;10:30:00;7301
09.01.2022;10:45:00;7627
09.01.2022;11:00:00;7939
09.01.2022;11:15:00;8456
09.01.2022;11:30:00;8885
09.01.2022;11:45:00;9061
09.01.2022;12:00:00;9128
09.01.2022;12:15:00;8909
09.01.2022;12:30:00;8567
09.01.2022;12:45:00;8052
09.01.2022;13:00:00;7614
09.01.2022;13:15:00;7328
09.01.2022;13:30:00;7242
09.01.2022;13:45:00;7022
09.01.2022;14:00:00;6915
09.01.2022;14:15:00;6831
09.01.2022;14:30:00;6766
09.01.2022;14:45:00;6774
09.01.2022;15:00:00;6787
09.01.2022;15:15:00;6676
09.01.2022;15:30:00;6822
09.01.2022;15:45:00;6682
09.01.2022;16:00:00;6632
09.01.2022;16:15:00;6764
09.01.2022;16:30:00;6831
09.01.2022;16:45:00;7055
09.01.2022;17:00:00;7472
09.01.2022;17:15:00;7714
09.01.2022;17:30:00;8049
09.01.2022;17:45:00;8253
09.01.2022;18:00:00;8422
09.01.2022;18:15:00;8378
09.01.2022;18:30:00;8320
09.01.2022;18:45:00;8368
09.01.2022;19:00:00;8130
09.01.2022;19:15:00;7986
09.01.2022;19:30:00;7702
09.01.2022;19:45:00;7543
09.01.2022;20:00:00;7325
09.01.2022;20:15:00;7082
09.01.2022;20:30:00;6890
09.01.2022;20:45:00;6616
09.01.2022;21:00:00;6410
09.01.2022;21:15:00;6343
09.01.2022;21:30:00;6171
09.01.2022;21:45:00;5966
09.01.2022;22:00:00;5897
09.01.2022;22:15:00;5734
09.01.2022;22:30:00;5551
09.01.2022;22:45:00;5350
09.01.2022;23:00:00;5152
09.01.2022;23:15:00;4946
09.01.2022;23:30:00;4834
09.01.2022;23:45:00;4606
10.01.2022;00:00:00;4469
10.01.2022;00:15:00;4308
10.01.2022;00:30:00;4224
10.01.2022;00:45:00;4101
10.01.2022;01:00:00;3997
10.01.2022;01:15:00;3931
10.01.2022;01:30:00;3951
10.01.2022;01:45:00;3909
10.01.2022;02:00:00;3903
10.01.2022;02:15:00;3909
10.01.2022;02:30:00;3882
10.01.2022;02:45:00;3866
10.01.2022;03:00:00;3911
10.01.2022;03:15:00;3961
10.01.2022;03:30:00;3985
10.01.2022;03:45:00;4066
10.01.2022;04:00:00;4171
10.01.2022;04:15:00;4342
10.01.2022;04:30:00;4352
10.01.2022;04:45:00;4383
10.01.2022;05:00:00;4431
10.01.2022;05:15:00;4677
10.01.2022;05:30:00;4715
10.01.2022;05:45:00;4821
10.01.2022;06:00:00;4779
10.01.2022;06:15:00;4892
10.01.2022;06:30:00;5149
10.01.2022;06:45:00;5362
10.01.2022;07:00:00;5629
10.01.2022;07:15:00;5987
10.01.2022;07:30:00;6231
10.01.2022;07:45:00;6556
10.01.2022;08:00:00;6853
10.01.2022;08:15:00;6974
10.01.2022;08:30:00;6883
10.01.2022;08:45:00;6956
10.01.2022;09:00:00;6994
10.01.2022;09:15:00;7110
10.01.2022;09:30:00;7125
10.01.2022;09:45:00;7305
10.01.2022;10:00:00;7351
10.01.2022;10:15:00;7287
10.01.2022;10:30:00;7258
10.01.2022;10:45:00;7329
10.01.2022;11:00:00;7388
10.01.2022;11:15:00;7555
10.01.2022;11:30:00;7714
10.01.2022;11:45:00;7812